This is the latest recevied weather packets stored in our database for station/object DL6MAA-11. If no packets are shown the sender has not sent any weather packets the latest 10 day(s).
| Time | Temp. | Humidity | Pressure | Rain* | Wind** | Luminosity | Snow |
|---|---|---|---|---|---|---|---|
| 1777108028 | 16.67° C | 38% | 1015 hPa | 0 mm | - | 33 W/m² | - |
| 1777107730 | 16.11° C | 40% | 1015 hPa | 0 mm | - | 35 W/m² | - |
| 1777107420 | 16.11° C | 40% | 1015 hPa | 0 mm | - | 32 W/m² | - |
| 1777107130 | 16.11° C | 41% | 1015 hPa | 0 mm | - | 37 W/m² | - |
| 1777106832 | 16.11° C | 45% | 1015 hPa | 0 mm | - | 32 W/m² | - |
| 1777106517 | 15.56° C | 40% | 1015.3 hPa | 0 mm | - | 32 W/m² | - |
| 1777106219 | 15.56° C | 42% | 1015.3 hPa | 0 mm | - | 44 W/m² | - |
| 1777105932 | 15° C | 46% | 1015.3 hPa | 0 mm | - | 102 W/m² | - |
| 1777105616 | 15° C | 43% | 1015.2 hPa | 0 mm | - | 246 W/m² | - |
| 1777105321 | 15° C | 49% | 1015.2 hPa | 0 mm | - | 371 W/m² | - |
| 1777105031 | 14.44° C | 49% | 1015.2 hPa | 0 mm | - | 417 W/m² | - |
| 1777104718 | 14.44° C | 47% | 1015 hPa | 0 mm | - | 406 W/m² | - |
| 1777104417 | 14.44° C | 46% | 1015 hPa | 0 mm | - | 404 W/m² | - |
| 1777104118 | 13.89° C | 52% | 1015 hPa | 0 mm | - | 371 W/m² | - |
| 1777103828 | 13.33° C | 48% | 1015.2 hPa | 0 mm | - | 385 W/m² | - |
| 1777103530 | 13.33° C | 50% | 1015.2 hPa | 0 mm | - | 378 W/m² | - |
| 1777103221 | 12.78° C | 50% | 1015.2 hPa | 0 mm | - | 371 W/m² | - |
| 1777102933 | 12.78° C | 51% | 1015.2 hPa | 0 mm | - | 367 W/m² | - |
| 1777102635 | 12.22° C | 53% | 1015.2 hPa | 0 mm | - | 352 W/m² | - |
| 1777102318 | 12.22° C | 52% | 1015.2 hPa | 0 mm | - | 352 W/m² | - |
| 1777102026 | 11.67° C | 57% | 1015.5 hPa | 0 mm | - | 338 W/m² | - |
| 1777101728 | 11.67° C | 58% | 1015.5 hPa | 0 mm | - | 332 W/m² | - |
| 1777101428 | 11.11° C | 56% | 1015.5 hPa | 0 mm | - | 322 W/m² | - |
| 1777101129 | 10.56° C | 58% | 1015.2 hPa | 0 mm | - | 309 W/m² | - |
| 1777100816 | 10.56° C | 57% | 1015.2 hPa | 0 mm | - | 299 W/m² | - |
* Rain since midnight (hover to see other rain measurements)
** Current wind speed in m/s (hover to see current wind gust speed)